Wind_Speed
9 7 6 9 9 10 11 10 12 16 16 17 17 18 18 18 18 18 19 19 21 23 26 28 30 31 32 32 32 32 33 34 34 34 35 35 36 35 33 32 31 30 29 28
7 7 9 9 9 9 9 9 11 14 14 15 16 18 18 20 21 21 21 22 23 25 25 26 27 29 30 31 32 34 36 37 38 38 39 39 39 38 37 36 35 34 33 32
8 9 9 8 8 7 7 7 9 11 11 12 14 15 16 18 19 20 21 21 22 23 25 27 28 30 32 34 36 38 39 40 41 42 42 42 42 41 41 39 38 38 37 36
6 5 3 3 4 4 5 7 8 9 9 10 9 12 13 15 17 18 20 22 23 25 27 29 31 34 36 37 38 40 41 42 43 44 44 44 44 44 43 42 42 42 41 41
2 3 3 2 1 2 4 6 7 8 8 10 10 11 14 15 18 20 22 24 26 28 30 32 34 35 37 38 39 40 41 43 44 45 46 47 47 47 47 46 46 45 45 46
3 3 3 1 0 3 5 7 8 10 9 10 13 12 17 18 21 23 25 27 29 31 33 34 35 36 37 38 40 41 43 45 47 49 50 52 52 52 52 51 51 50 50 49
1 2 2 4 5 6 7 7 8 8 8 12 17 15 17 19 22 25 28 30 32 33 34 34 34 36 37 39 41 43 45 46 48 50 52 52 52 51 51 50 50 50 51 52
3 5 5 6 7 9 9 8 7 6 8 13 18 16 17 21 24 27 29 30 30 31 32 34 36 37 39 40 42 43 45 47 48 48 46 44 43 42 42 42 43 44 45 48
4 7 6 8 9 10 11 9 9 8 10 11 17 19 20 23 25 26 26 27 29 31 34 36 37 39 41 42 43 45 48 47 44 40 37 36 37 38 40 41 42 44 45 46
6 7 9 9 10 9 9 9 9 8 10 10 15 23 24 23 24 25 26 29 31 34 36 38 40 41 43 45 47 47 47 44 39 36 35 36 37 39 41 42 44 46 47 49
6 9 10 10 9 9 9 9 9 10 12 14 14 20 23 24 25 27 29 31 33 36 37 39 40 42 44 46 47 46 44 41 38 37 37 39 42 44 46 48 50 51 53 54
7 9 10 10 9 9 9 9 10 12 15 16 18 21 22 24 25 28 30 33 35 36 38 39 41 42 44 45 45 44 42 40 39 39 41 44 46 49 51 54 55 57 58 59
8 10 11 12 12 12 12 11 12 13 14 16 18 22 23 24 27 30 33 35 36 37 38 39 41 43 45 45 44 43 42 41 41 42 45 47 50 53 55 58 59 60 61 61
9 9 8 8 11 14 14 13 13 14 16 17 19 22 26 28 31 34 36 37 38 38 39 41 42 44 45 45 44 43 42 42 43 45 48 50 53 56 58 60 62 62 63 63
10 10 10 11 13 15 16 15 16 16 16 18 21 25 28 31 34 37 39 39 40 40 41 42 43 44 45 45 44 43 42 42 44 47 50 52 54 56 58 60 61 61 61 60
11 11 12 14 15 16 17 17 17 17 18 19 23 26 30 33 36 38 40 41 41 41 41 42 43 44 45 45 44 42 42 43 46 49 51 53 54 56 58 58 57 57 55 52
13 13 14 16 17 17 17 17 18 19 20 22 25 28 32 35 37 40 42 43 43 43 43 43 44 45 46 46 44 43 43 45 48 50 52 53 54 56 57 56 54 52 48 45
14 15 17 18 19 19 18 18 18 19 21 24 26 29 32 36 39 41 42 44 45 45 45 45 46 46 47 47 45 44 45 46 49 51 52 53 55 56 55 53 51 47 42 38
15 17 18 19 20 20 18 17 18 19 21 24 27 30 33 37 41 44 46 47 48 48 48 48 48 48 48 47 46 44 45 47 49 51 52 53 54 54 53 50 47 43 37 33
16 17 18 19 20 19 20 18 19 21 23 25 27 30 34 39 41 44 47 48 49 49 50 49 49 49 48 47 46 44 45 47 49 50 50 52 53 52 50 48 44 38 33 28
16 17 17 19 19 21 20 20 21 23 26 27 29 32 36 41 44 46 47 48 50 50 51 50 50 49 49 48 46 44 45 47 48 49 49 50 51 50 48 46 41 35 30 25
17 18 17 17 19 21 20 21 22 24 26 28 30 33 37 41 45 48 49 50 50 51 51 51 49 49 49 48 46 44 44 46 47 47 48 49 49 47 45 43 39 34 29 24
18 18 19 19 20 21 22 22 23 25 27 29 31 34 38 42 46 49 50 50 50 51 51 50 49 48 48 48 46 44 44 45 45 46 46 47 47 45 43 40 37 33 28 23
22 19 19 20 22 23 23 24 25 26 28 29 32 35 39 43 47 49 50 49 49 51 51 49 48 47 47 47 46 44 43 44 44 45 45 45 45 43 41 39 36 32 27 22
24 22 21 21 23 24 25 26 26 28 29 31 34 37 40 44 48 50 50 49 49 51 50 48 47 47 47 47 45 43 42 43 43 43 43 44 44 42 39 37 34 31 27 22
24 23 22 22 23 24 26 26 27 28 30 32 36 39 42 46 49 50 50 49 50 50 49 47 46 46 46 46 44 42 41 42 42 42 41 42 42 40 37 35 32 30 27 22
Wind_Direction
275 271 260 255 255 252 257 259 265 270 274 275 277 278 279 278 280 283 284 285 285 286 289 291 294 296 297 299 299 299 299 299 298 297 296 295 295 294 293 291 288 286 284 283
297 284 272 273 272 273 277 280 281 281 280 278 275 274 274 275 278 282 285 289 292 294 297 299 302 302 302 302 301 301 300 299 297 295 294 293 291 290 289 288 285 283 280 278
294 278 282 278 279 286 286 278 280 291 291 286 283 280 275 276 279 283 289 294 298 300 302 303 303 303 302 302 301 299 298 296 294 293 291 290 288 286 285 283 280 278 276 274
312 302 286 265 263 258 276 284 292 301 306 302 293 290 285 285 290 295 298 299 300 301 302 302 301 301 301 299 298 297 296 294 293 291 290 288 287 285 283 281 277 274 271 269
55 78 93 124 206 241 263 293 303 307 305 302 299 293 297 296 300 302 301 299 299 300 300 299 299 298 298 297 297 296 296 294 293 291 290 288 286 284 282 279 277 274 270 267
96 85 79 74 278 286 303 314 321 323 323 304 302 301 296 299 299 298 297 297 299 299 298 298 297 297 298 298 298 297 296 294 293 291 290 288 287 285 283 280 276 273 270 267
26 339 330 324 317 314 322 330 329 325 317 292 299 300 300 299 298 296 297 300 301 300 300 300 300 300 300 299 298 296 295 293 292 290 289 288 287 285 283 281 278 274 271 268
338 315 320 317 310 307 310 307 296 289 291 296 307 311 308 303 301 302 303 302 302 303 304 305 305 304 303 302 300 299 298 298 296 294 292 289 287 286 284 282 280 278 275 271
336 322 321 311 306 304 304 302 304 317 316 319 307 316 313 310 309 309 307 307 308 309 310 310 310 309 308 308 307 307 306 305 303 299 295 291 288 285 284 282 280 278 276 273
339 332 326 318 311 308 310 320 330 332 317 317 312 317 325 321 320 317 314 314 315 315 314 314 314 314 315 314 314 312 311 310 306 302 297 293 290 288 285 283 281 279 276 273
342 342 335 331 330 331 332 335 334 332 334 333 325 315 331 329 327 324 322 321 320 318 317 318 318 318 318 317 316 316 314 310 306 302 299 296 295 292 291 289 286 283 279 275
334 342 339 339 343 345 345 345 343 340 336 337 336 331 339 336 334 331 329 326 322 321 321 321 320 320 320 320 320 318 314 310 307 304 302 301 299 297 295 293 290 287 282 278
323 335 345 343 342 344 345 348 345 338 336 339 341 335 342 340 338 336 335 331 327 325 324 323 324 324 325 324 322 319 316 313 310 307 306 305 303 301 298 296 293 289 285 280
312 324 336 324 324 333 337 341 340 337 336 338 339 338 339 340 339 339 338 334 331 328 327 327 328 328 328 326 323 320 316 313 312 311 310 309 308 306 303 300 296 292 288 282
306 315 324 330 332 331 330 331 330 328 331 336 337 338 339 339 339 339 338 335 333 332 331 330 329 330 329 327 324 320 317 315 315 315 316 315 314 312 309 305 301 297 292 285
305 316 327 331 331 326 323 321 321 321 327 333 335 336 339 340 338 338 338 337 335 334 332 331 331 331 330 328 326 322 320 319 320 321 321 321 319 317 314 311 308 302 296 289
309 319 326 326 325 322 315 316 318 320 324 331 333 335 338 341 339 339 339 338 336 335 334 333 332 332 332 330 328 325 324 324 325 326 326 325 324 322 320 317 314 309 302 294
313 318 320 319 318 318 312 312 313 317 323 329 332 334 338 340 338 339 339 338 338 336 335 334 333 334 334 333 330 328 328 328 329 329 330 329 328 327 326 323 319 316 308 299
315 315 313 314 316 314 309 309 310 316 323 326 330 334 337 340 339 338 340 340 340 339 337 336 335 335 335 334 332 330 330 331 332 332 332 333 333 333 331 329 326 322 315 305
310 310 310 312 313 311 310 313 312 317 322 327 331 335 338 340 339 338 339 339 340 339 338 337 335 335 336 335 333 331 332 333 334 335 335 336 337 337 336 335 333 331 325 316
309 310 310 312 313 309 311 312 315 321 325 329 333 337 339 339 339 339 339 339 340 340 339 338 336 336 337 336 335 333 333 335 336 337 338 339 340 340 340 340 340 338 335 327
307 309 310 310 309 306 311 312 317 321 326 329 333 337 338 338 337 338 338 339 340 340 339 338 337 336 337 337 336 335 335 336 338 339 341 342 343 344 344 345 344 343 341 335
301 302 306 308 307 308 311 314 318 322 326 329 332 335 337 336 336 337 337 338 339 340 340 339 338 337 337 338 337 336 337 338 340 341 343 345 346 347 348 349 349 348 345 342
297 299 302 305 306 309 312 316 320 323 325 327 329 332 334 334 334 336 337 337 338 339 340 339 339 338 338 339 338 337 338 339 341 343 345 347 348 349 351 352 353 353 352 349
294 299 301 303 305 309 313 317 320 322 323 324 326 329 331 332 334 336 337 338 339 340 341 341 340 339 339 340 339 338 338 340 342 345 347 348 350 351 352 353 356 357 357 356
296 301 302 302 304 309 313 318 321 321 321 321 323 326 329 331 334 336 338 338 340 341 343 343 342 340 340 341 340 339 339 341 343 346 348 351 353 354 354 355 357 0 3 4
Height
5874 5875 5877 5876 5875 5876 5876 5877 5877 5875 5874 5874 5873 5872 5872 5870 5870 5869 5868 5867 5866 5865 5863 5861 5858 5855 5852 5848 5845 5842 5839 5836 5833 5830 5828 5825 5821 5818 5816 5813 5810 5807 5804 5802
5874 5874 5873 5872 5872 5873 5873 5874 5874 5872 5871 5871 5869 5868 5867 5866 5865 5864 5863 5862 5860 5858 5856 5853 5850 5847 5844 5840 5837 5834 5831 5828 5825 5822 5818 5815 5812 5809 5807 5804 5802 5799 5797 5795
5871 5872 5870 5870 5870 5871 5872 5872 5872 5869 5868 5867 5865 5864 5863 5861 5860 5859 5858 5857 5855 5853 5850 5847 5844 5840 5837 5833 5829 5826 5822 5818 5815 5812 5808 5805 5802 5799 5797 5794 5792 5790 5788 5787
5869 5868 5868 5868 5869 5869 5871 5869 5868 5867 5865 5864 5863 5863 5860 5858 5857 5855 5854 5852 5850 5847 5844 5841 5838 5834 5830 5826 5822 5818 5813 5809 5805 5801 5797 5794 5791 5788 5786 5784 5782 5780 5779 5777
5869 5868 5868 5868 5869 5868 5868 5867 5866 5865 5864 5863 5861 5861 5858 5855 5853 5852 5849 5847 5845 5842 5839 5835 5832 5827 5823 5819 5814 5809 5805 5800 5795 5790 5786 5782 5779 5776 5774 5772 5770 5769 5767 5766
5870 5870 5869 5869 5869 5868 5868 5867 5865 5864 5863 5862 5859 5859 5855 5852 5850 5848 5845 5842 5839 5836 5833 5829 5824 5820 5816 5811 5806 5801 5796 5790 5784 5779 5774 5769 5766 5762 5760 5758 5756 5755 5754 5753
5872 5871 5870 5870 5869 5868 5867 5868 5867 5866 5864 5861 5857 5855 5853 5849 5846 5843 5840 5837 5833 5829 5825 5821 5816 5812 5807 5802 5796 5791 5785 5780 5773 5767 5762 5757 5752 5748 5746 5743 5741 5740 5739 5738
5873 5872 5870 5869 5868 5867 5866 5866 5866 5865 5863 5860 5853 5851 5850 5845 5842 5838 5834 5830 5825 5821 5817 5812 5807 5802 5797 5792 5786 5780 5773 5767 5760 5754 5748 5743 5739 5736 5733 5730 5727 5725 5724 5722
5872 5871 5869 5867 5866 5865 5863 5862 5861 5859 5858 5856 5852 5848 5845 5840 5837 5832 5828 5823 5819 5814 5809 5803 5797 5792 5786 5779 5773 5766 5759 5752 5745 5739 5735 5732 5728 5725 5722 5718 5716 5713 5711 5709
5870 5869 5867 5865 5864 5862 5861 5859 5857 5857 5854 5854 5851 5844 5840 5835 5831 5826 5821 5817 5812 5806 5800 5793 5787 5781 5774 5767 5760 5753 5745 5738 5733 5728 5724 5721 5717 5713 5709 5706 5702 5699 5696 5694
5869 5868 5866 5863 5861 5859 5858 5857 5855 5853 5851 5849 5847 5844 5836 5830 5826 5821 5815 5810 5804 5798 5792 5785 5779 5772 5765 5757 5749 5741 5734 5728 5723 5718 5714 5709 5705 5700 5695 5690 5686 5682 5679 5676
5868 5867 5864 5862 5859 5857 5856 5854 5853 5851 5848 5845 5842 5840 5832 5827 5821 5816 5810 5804 5798 5792 5785 5778 5771 5764 5756 5748 5740 5731 5724 5718 5713 5708 5703 5697 5691 5685 5679 5672 5666 5661 5657 5654
5866 5865 5863 5861 5859 5856 5854 5852 5850 5848 5845 5842 5838 5836 5828 5823 5817 5811 5806 5799 5792 5785 5778 5771 5763 5755 5746 5737 5729 5721 5714 5708 5702 5696 5690 5683 5676 5668 5661 5653 5645 5638 5633 5629
5864 5863 5863 5862 5858 5854 5852 5850 5847 5845 5842 5838 5834 5829 5824 5818 5812 5806 5799 5792 5785 5777 5770 5762 5754 5745 5736 5728 5719 5711 5704 5698 5691 5684 5676 5668 5660 5651 5641 5632 5623 5614 5607 5602
5862 5861 5858 5856 5854 5851 5849 5847 5845 5842 5838 5834 5829 5824 5819 5813 5806 5800 5793 5786 5778 5771 5763 5754 5746 5738 5729 5719 5711 5703 5695 5688 5680 5671 5662 5653 5643 5632 5621 5610 5600 5590 5581 5574
5860 5858 5856 5854 5851 5849 5846 5844 5841 5838 5834 5830 5825 5821 5815 5809 5802 5795 5788 5780 5773 5765 5757 5748 5740 5730 5721 5711 5702 5693 5685 5677 5668 5658 5648 5637 5626 5615 5603 5590 5578 5567 5557 5549
5856 5855 5853 5851 5848 5846 5843 5841 5837 5834 5830 5826 5821 5817 5810 5804 5797 5791 5783 5775 5767 5759 5750 5741 5732 5722 5712 5702 5692 5683 5674 5665 5656 5645 5634 5623 5611 5599 5585 5572 5559 5547 5536 5529
5853 5851 5849 5847 5846 5843 5841 5837 5834 5830 5826 5821 5817 5812 5806 5800 5792 5785 5778 5769 5761 5752 5743 5733 5724 5714 5704 5693 5683 5673 5664 5654 5644 5633 5622 5610 5597 5584 5570 5556 5543 5530 5520 5512
5849 5848 5846 5844 5841 5839 5836 5833 5829 5826 5823 5818 5813 5808 5802 5795 5787 5778 5771 5762 5754 5745 5735 5725 5715 5705 5695 5685 5674 5664 5655 5645 5634 5623 5611 5598 5585 5572 5558 5544 5530 5518 5508 5500
5846 5845 5843 5840 5837 5834 5832 5828 5824 5823 5818 5814 5809 5803 5796 5790 5784 5776 5766 5757 5748 5738 5728 5718 5708 5698 5688 5677 5667 5656 5647 5637 5626 5614 5602 5589 5576 5562 5548 5534 5521 5509 5499 5491
5843 5841 5839 5835 5832 5830 5827 5823 5821 5818 5814 5808 5803 5797 5790 5783 5777 5769 5761 5752 5742 5732 5722 5712 5701 5691 5681 5671 5660 5649 5640 5629 5618 5607 5594 5582 5568 5555 5541 5528 5515 5504 5495 5487
5839 5837 5834 5832 5829 5827 5822 5819 5817 5813 5807 5803 5797 5792 5785 5778 5771 5763 5754 5745 5735 5726 5715 5705 5695 5684 5674 5664 5653 5643 5633 5623 5612 5600 5588 5576 5563 5549 5536 5524 5512 5501 5492 5485
5835 5833 5830 5828 5826 5821 5818 5815 5812 5807 5803 5798 5793 5787 5781 5774 5766 5758 5749 5739 5729 5719 5709 5699 5689 5678 5668 5657 5647 5637 5627 5617 5606 5595 5583 5571 5558 5545 5533 5522 5510 5500 5491 5484
5829 5827 5825 5822 5819 5816 5813 5810 5806 5802 5798 5793 5788 5782 5775 5769 5761 5752 5743 5733 5724 5714 5703 5693 5683 5673 5662 5651 5641 5631 5621 5612 5601 5590 5579 5567 5555 5543 5531 5520 5510 5500 5492 5484
5823 5821 5820 5817 5814 5811 5808 5805 5801 5797 5792 5787 5782 5776 5769 5762 5754 5745 5736 5727 5718 5708 5697 5687 5677 5667 5656 5646 5635 5625 5616 5607 5597 5586 5575 5564 5552 5541 5530 5520 5510 5501 5493 5485
5816 5816 5814 5812 5809 5806 5803 5799 5795 5791 5787 5781 5776 5770 5763 5756 5748 5739 5730 5721 5712 5702 5692 5682 5671 5661 5651 5641 5631 5621 5612 5603 5593 5583 5572 5562 5551 5540 5530 5521 5512 5503 5495 5488